Regional Weather Roundup
Issued by NWS

Home | Current Version | Previous Version | Text Only | Print | Product List | Glossary On
Versions: 1 2 3 4 5 6 7 8 9 10 11 12 13 14 15 16 17 18 19 20 21 22 23 24 25 26 27 28 29 30 31 32 33 34 35 36 37 38 39 40 41 42 43 44 45 46 47 48 49 50
000
ASUS45 KTFX 291319
RWRMT
MONTANA HOURLY WEATHER ROUNDUP
NATIONAL WEATHER SERVICE GREAT FALLS MT
719 AM MDT TUE JUL 29 2014

NOTE: "FAIR" INDICATES FEW OR NO CLOUDS BELOW 12000 FEET WITH NO
SIGNIFICANT WEATHER AND/OR OBSTRUCTIONS TO VISIBILITY.

* THESE STATIONS ARE NOT UNDER NWS QUALITY CONTROL. THEY DO NOT
   REPORT WEATHER SUCH AS PRECIPITATION OR FOG.

MTZ001>007-043-291400-
WEST OF THE DIVIDE
CITY           SKY/WX    TMP DP  RH WIND       PRES   REMARKS
KALISPELL      CLEAR     59  48  67 N7        30.16R
MISSOULA       CLEAR     57  43  60 CALM      30.20R
BUTTE          PTCLDY    48  39  71 W3        30.31S
MULLAN PASS    CLEAR     68  39  35 SE7       30.33S
* LINCOLN      N/A       50  47  89 SW1        N/A
* LOOKOUT PASS N/A       60  43  54 S2         N/A
* POLSON       N/A       59  45  60 E1         N/A
* RONAN APT    CLEAR     50  46  86 N/A        N/A
* SEELEY LAKE  N/A       46  42  86 NE1        N/A
* THOMP F APT  CLEAR     61  44  54 NE3        N/A
* YAAK HILL    N/A       56  47  72 N/A        N/A
$$

MTZ008-052>055-291400-
SOUTHWEST MONTANA
CITY           SKY/WX    TMP DP  RH WIND       PRES   REMARKS
BOZEMAN        PTCLDY    55  46  72 N3        30.25R
DILLON         PTCLDY    55  43  64 S6        30.27S
W YELLOWSTONE  CLOUDY    54  52  93 CALM      30.39S
* THREE FORKS  CLEAR     52  52 100 N/A        N/A
* BOULDER HILL N/A       58  37  46 S6         N/A
* MONIDA PASS  N/A       53  43  69 W4         N/A
* RAYNOLDS PAS N/A       55  43  64 SW6        N/A
* WHITEHALL    N/A       53  43  69 N2         N/A
* WISE RIVER   N/A       46  41  83 SW2        N/A
$$

MTZ009>010-012-014-046-048-049-054-291400-
EAST SLOPES AND CENTRAL MONTANA
CITY           SKY/WX    TMP DP  RH WIND       PRES   REMARKS
CUT BANK       CLEAR     54  46  74 NW6       30.22S
GREAT FALLS    PTCLDY    63  52  68 CALM      30.19R
HELENA         PTCLDY    64  43  47 CALM      30.22R
MALMSTROM AFB  PTCLDY    63  50  63 SW3       30.21R
* CONRAD       CLEAR     48  48 100 N/A        N/A
* DEARBORN     N/A       62  48  60 SE2        N/A
* EAST GLACIER N/A       54  45  72 NW6        N/A
* ROGERS PASS  N/A       60  43  54 NW2        N/A
* SAINT MARY   N/A       44  43  96 SE3        N/A
* SWEET GRASS  N/A       63  46  54 SW8        N/A
* WHITE SULPH  N/A       59  42  53 E5         N/A
$$

MTZ011-013-016-021-035-040-045-047-050-051-291400-
NORTH CENTRAL MONTANA
CITY           SKY/WX    TMP DP  RH WIND       PRES   REMARKS
HAVRE          CLEAR     63  48  58 E7        30.17R
LEWISTOWN      MOCLDY    68  46  45 E10       30.24R
* FORT BENTON  PTCLDY    68  48  49 CALM      30.17R
* CHESTER      N/A       61  48  62 E4         N/A
* DENTON       N/A       63  52  68 SE6        N/A
* JUDITH GAP   N/A       60  45  58 S4G11      N/A
* LOMA         N/A       65  48  54 NE9        N/A
$$

MTZ017>020-022>027-061-062-291400-
NORTHEAST MONTANA
CITY           SKY/WX    TMP DP  RH WIND       PRES   REMARKS
GLASGOW        PTCLDY    64  50  61 E5        30.20S
GLENDIVE       PTCLDY    63  54  73 SW5       30.24R
JORDAN         CLOUDY    70  52  53 SE5       30.19F
SIDNEY         PTCLDY    61  54  78 CALM      30.23R
WOLF POINT     MOCLDY    57  48  72 CALM      30.22R
* BEAVER HILL  N/A       62  51  67 N/A        N/A
* CIRCLE       N/A       61  53  75 N/A        N/A
* LINDSAY DVD  N/A       61  53  75 NW4G9      N/A
$$

MTZ028>042-056>058-291400-
SOUTHCENTRAL AND SOUTHEAST MONTANA
CITY           SKY/WX    TMP DP  RH WIND       PRES   REMARKS
BAKER          CLEAR     57  52  83 E5        30.24S
BILLINGS       PTCLDY    66  46  49 N12       30.21S
LIVINGSTON     CLEAR     61  43  52 E5        30.28R
MILES CITY     CLOUDY    68  52  57 E3        30.22R
* LAUREL APT   PTCLDY    66  46  49 N/A        N/A
* ROUNDUP APT  MOCLDY    66  48  52 N/A        N/A
* ALZADA       N/A       57  51  80 E2         N/A
* HYSHAM       N/A       66  51  59 E11        N/A
* LAME DEER    N/A       64  51  63 E6         N/A
* REED POINT   N/A       56  50  80 N2         N/A
* ROSCOE HILL  N/A       64  41  43 W1         N/A
$$

REGIONAL REPORTS...DAKOTAS
CITY           SKY/WX    TMP DP  RH WIND       PRES   REMARKS
WILLISTON      CLEAR     63  54  73 CALM      30.21R
DICKINSON      CLEAR     55  52  90 CALM      30.22S
CROSBY         N/A       61  61 100 CALM      30.22S
TIOGA          FOG       57  57 100 CALM      30.25S
WATFORD CITY   FOG       59  55  87 CALM      30.20S
BISMARCK       FOG       54  52  93 CALM      30.24S
GRAND FORKS    FAIR      59  55  87 W5        30.18R
FARGO          CLEAR     57  54  90 CALM      30.19R
BUFFALO SD     CLEAR     61  54  78 CALM      30.20R
RAPID CITY     MOCLDY    61  54  78 CALM      30.27S
$$

REGIONAL REPORTS...WYOMING/IDAHO/WASHINGTON
CITY           SKY/WX    TMP DP  RH WIND       PRES   REMARKS
GILLETTE       LGT RAIN  63  57  81 CALM      30.29R
SHERIDAN       CLOUDY    64  54  70 S7        30.25R
YELLOWSTONE LA CLOUDY    52  48  86 CALM      30.48S
SALMON         PTCLDY    54  48  80 CALM      30.24R
MULLAN PASS    CLEAR     68  39  35 SE7       30.33S
SAND POINT     CLEAR     54  54 100 CALM      30.11S
SPOKANE        FAIR      66  48  52 NE3       30.08R
$$

REGIONAL REPORTS...ALBERTA
CITY           SKY/WX    TMP DP  RH WIND       PRES   REMARKS
CALGARY        FAIR      57  50  78 S8        30.19R
LETHBRIDGE     N/A       54  52  93 SW7       30.18S
MEDICINE HAT   N/A       59  54  84 NW3       30.18R
EDMONTON       FAIR      59  57  93 SE8       30.14S
WATERTON GATE  N/A       52  46  80 SW6        N/A
CARDSTON       N/A       50  48  93 SE5        N/A
MILK RIVER     N/A       55  46  72 SW5        N/A
$$

REGIONAL REPORTS...SASKATCHEWAN
CITY           SKY/WX    TMP DP  RH WIND       PRES   REMARKS
SWIFT CURRENT  CLEAR     59  54  84 SE7       30.23S
MOOSE JAW      N/A       57  55  93 W2        30.23S
REGINA         N/A       59  57  93 CALM      30.23S
VAL MARIE      N/A       59  54  84 NE5        N/A
ASSINIBOIA     N/A       55  54  96 CALM       N/A
CORONACH       N/A       54  52  93 NW2        N/A

$$




USA.gov is the U.S. government's official web portal to all federal, state and local government web resources and services.